Location: Sungai Dangang
(2.7500°N, 113.8333°E)
Time: 19:04:12
(UTC+00:00)

Cosmos 1408 - Pass Details

Date: 16 May 2021
Orbit: 468 x 490 km, 82.6° (Epoch: 20 June)

Event Time Altitude Azimuth Distance (km) Brightness Sun altitude
Exits shadow 21:37:42 - 215° (SW) 1,786 4.9 -9.3°
Reaches altitude 10° 21:38:09 10° 219° (SW) 1,630 4.7 -9.2°
Maximum altitude 21:41:03 23° 274° (W) 1,027 3.7 -8.5°
Drops below altitude 10° 21:43:56 10° 329° (NNW) 1,619 5.1 -7.8°
Sets 21:46:17 0° 344° (NNW) 2,491 6.2 -7.3°
